[[{"header":{"parameterUnit":"m.s-1","parameterCategory":1,"la1":30.2991,"la2":30.254,"lo1":-89.0895,"lo2":-89.0444,"dy":0.0017,"dx":0.0017,"nx":28,"ny":28,"refTime":"2024-07-06T21:00:00:Z","depth":0,"parameterNumber":2,"parameterNumberName":"U-component_of_WINDS"},"data":[0,0,0,0,0,0,0,0,0,0,0,0,0,0,0,0,0,0,0,0,0,0,0,0,0,0,0,0,0,0,0,0,0,0,0,0,0,0,0,0,0,0,0,0,0,0,0,0,0,0,0,0,0,0,0,0,0,0,0.1696,0.1697,0,0.1843,0.1845,0.1846,0.192,0.192,0.192,0.192,0.2075,0.2079,0.2083,0,0,0,0,0,0,0,0,0,0,0,0,0,0.1479,0.1483,0.1695,0.1697,0.1699,0.1843,0.1845,0.1847,0.192,0.192,0.192,0.192,0.2073,0.2078,0.2083,0,0,0,0,0,0,0,0,0,0,0,0,0,0.1595,0.1484,0.1695,0.1753,0.176,0.1842,0.1845,0.1847,0.192,0.192,0.192,0.192,0.2072,0.2078,0.2084,0.2121,0,0,0.2102,0.2105,0,0,0,0,0,0,0,0,0.1588,0.1602,0.1743,0.1749,0.1757,0.1863,0.1825,0.1939,0.192,0.1859,0.192,0.192,0.2004,0.2016,0.2044,0.2128,0.2135,0.2103,0.2107,0.2109,0.2111,0,0,0,0,0,0,0,0.158,0.1597,0.1754,0.1744,0.1753,0.1772,0.1789,0.1847,0.193,0.1865,0.187,0.1887,0.2008,0.2038,0.2048,0.2137,0.2103,0.2108,0.2112,0.2114,0.226,0.226,0,0,0,0,0,0,0.1562,0.1589,0.1749,0.1758,0.1671,0.1776,0.1794,0.1829,0.193,0.1945,0.1886,0.1889,0.2027,0.2041,0.2054,0.2104,0.2109,0.2115,0.2119,0.226,0.226,0.226,0,0,0,0,0,0,0.1557,0.1576,0.1743,0.1676,0.1698,0.178,0.1818,0.1832,0.1861,0.1946,0.1961,0.1901,0.2028,0.2045,0.2104,0.2111,0.2118,0.2123,0.226,0.226,0.226,0.2205,0,0,0,0,0,0,0.1551,0.1573,0.1588,0.1675,0.1702,0.179,0.1818,0.1835,0.1871,0.1877,0.1964,0.1978,0.2029,0.2094,0.211,0.2119,0.2128,0.2259,0.226,0.226,0.2207,0.2204,0.2201,0,0,0,0,0,0.1543,0.1567,0.1588,0.1607,0.1721,0.179,0.1805,0.1862,0.1872,0.1887,0.1942,0.1976,0.2107,0.2099,0.2118,0.2129,0.2259,0.226,0.226,0.2208,0.2204,0.2201,0,0,0,0,0,0,0.148,0.158,0.1604,0.1658,0.1715,0.1802,0.1824,0.1856,0.1912,0.1915,0.1985,0.2004,0.2056,0.2099,0.2088,0.2171,0.2187,0.2191,0.2141,0.2138,0.2135,0.2124,0.2133,0,0,0,0,0,0.1472,0.1519,0.1604,0.1643,0.167,0.1742,0.1774,0.1813,0.1875,0.19,0.1958,0.2018,0.2073,0.2108,0.2163,0.2213,0.2233,0.223,0.2227,0.2224,0.2227,0.2257,0.2256,0.2262,0.2262,0.2262,0,0,0.1457,0.1517,0.1543,0.1632,0.1681,0.1728,0.1762,0.181,0.1847,0.1908,0.1966,0.2011,0.2082,0.2137,0.2164,0.2174,0.223,0.2225,0.2222,0.2227,0.2257,0.2256,0.2256,0.2262,0.2262,0.2262,0,0,0.1454,0.1504,0.1542,0.1589,0.1662,0.1709,0.1718,0.1801,0.1833,0.1892,0.1939,0.1983,0.2076,0.2125,0.2162,0.2176,0.2209,0.2192,0.2177,0.2205,0.2204,0.2204,0.2209,0.221,0.2195,0.2194,0.2194,0,0.1426,0.1498,0.1557,0.1603,0.1641,0.1697,0.1736,0.178,0.1867,0.1892,0.1902,0.202,0.2072,0.2138,0.2141,0.217,0.2182,0.2183,0.2199,0.22,0.2201,0.2206,0.2208,0.2192,0.2192,0.2192,0.2193,0,0.146,0.151,0.1532,0.1613,0.1654,0.1696,0.1762,0.1796,0.1831,0.1877,0.1937,0.2001,0.207,0.2089,0.2124,0.216,0.2164,0.2186,0.2203,0.2197,0.2203,0.2206,0.2188,0.2189,0.219,0.219,0,0,0.1422,0.1535,0.1542,0.158,0.1664,0.1704,0.1748,0.1815,0.1842,0.1901,0.194,0.2017,0.2037,0.2079,0.2121,0.2145,0.2152,0.2164,0.2167,0.2159,0.2195,0.2179,0.218,0.2174,0.2175,0.2175,0.2189,0,0.143,0.1512,0.1566,0.1627,0.1674,0.1727,0.1767,0.1823,0.1867,0.1914,0.1963,0.2016,0.2039,0.2065,0.2091,0.2145,0.216,0.2145,0.2212,0.2214,0.2193,0.2184,0.2166,0.2176,0.2192,0.2193,0.2193,0,0.1451,0.1506,0.1571,0.165,0.1672,0.1706,0.1771,0.1814,0.1879,0.191,0.1955,0.1997,0.2047,0.206,0.213,0.2119,0.215,0.218,0.2182,0.2191,0.2203,0.2192,0.2181,0.2182,0.2198,0.2197,0.2197,0,0.1416,0.1507,0.1558,0.1589,0.1682,0.1704,0.1744,0.1809,0.1845,0.1902,0.1926,0.1989,0.2023,0.207,0.2128,0.2132,0.2193,0.221,0.222,0.2218,0.2231,0.2229,0.2224,0.225,0.225,0.225,0.225,0,0.142,0.1458,0.1544,0.1575,0.1619,0.1681,0.1723,0.1767,0.1824,0.1866,0.1916,0.1954,0.2027,0.2074,0.212,0.2171,0.2186,0.2213,0.2225,0.2209,0.2205,0.223,0.2231,0.225,0.225,0.225,0.225,0,0.1389,0.1448,0.1507,0.1589,0.1611,0.164,0.1711,0.1744,0.179,0.1842,0.1857,0.1931,0.1989,0.2051,0.213,0.2161,0.221,0.2226,0.2187,0.2194,0.22,0.2199,0.2212,0.2217,0.2238,0.2237,0.2237,0,0.1387,0.1417,0.1503,0.1534,0.1572,0.1621,0.1658,0.172,0.1756,0.1832,0.1855,0.1917,0.1969,0.2059,0.212,0.2181,0.2199,0.22,0.2209,0.2192,0.22,0.2197,0.22,0.2197,0.2196,0.2196,0.2195,0,0.1378,0.1406,0.1456,0.1517,0.1559,0.1611,0.1664,0.1686,0.1759,0.1798,0.1857,0.1897,0.1977,0.2037,0.2105,0.2148,0.2184,0.2192,0.2197,0.2181,0.2157,0.217,0.2179,0.2191,0.2192,0.2192,0.2192,0.2192,0.1362,0.1391,0.1455,0.151,0.1557,0.1605,0.1639,0.169,0.174,0.1809,0.1843,0.1902,0.1966,0.2061,0.2102,0.2149,0.216,0.2168,0.2171,0.2171,0.2167,0.2149,0.2162,0.2162,0.2162,0.2163,0.2163,0,0.1355,0.1399,0.1449,0.1521,0.1564,0.1593,0.1654,0.1688,0.1739,0.1795,0.1845,0.1913,0.1971,0.2036,0.2099,0.2125,0.2143,0.2139,0.2138,0.2147,0.2154,0.2143,0.2123,0.2123,0.2123,0.2123,0.2123,0.2123,0.1357,0.1408,0.1443,0.1517,0.1561,0.1618,0.165,0.1695,0.174,0.1813,0.1862,0.1903,0.1963,0.2031,0.2086,0.2104,0.2125,0.2116,0.2138,0.2144,0.2147,0.215,0.214,0.212,0.212,0.2128,0.2128,0.2128]},{"header":{"parameterUnit":"m.s-1","parameterCategory":1,"la1":30.2991,"la2":30.254,"lo1":-89.0895,"lo2":-89.0444,"dy":0.0017,"dx":0.0017,"nx":28,"ny":28,"refTime":"2024-07-06T21:00:00:Z","depth":0,"parameterNumber":3,"parameterNumberName":"V-component_of_WINDS"},"data":[0,0,0,0,0,0,0,0,0,0,0,0,0,0,0,0,0,0,0,0,0,0,0,0,0,0,0,0,0,0,0,0,0,0,0,0,0,0,0,0,0,0,0,0,0,0,0,0,0,0,0,0,0,0,0,0,0,0,3.7635,3.7635,0,3.7633,3.7633,3.7633,3.7635,3.7635,3.7635,3.7635,3.7631,3.7631,3.7631,0,0,0,0,0,0,0,0,0,0,0,0,0,3.7637,3.7637,3.7635,3.7635,3.7635,3.7633,3.7633,3.7633,3.7635,3.7635,3.7635,3.7635,3.7631,3.7631,3.7631,0,0,0,0,0,0,0,0,0,0,0,0,0,3.7636,3.7637,3.7635,3.7635,3.7635,3.7633,3.7633,3.7633,3.7635,3.7635,3.7635,3.7635,3.7632,3.7631,3.7631,3.7627,0,0,3.763,3.763,0,0,0,0,0,0,0,0,3.7636,3.7636,3.7635,3.7635,3.7635,3.7634,3.7633,3.7631,3.7635,3.7635,3.7635,3.7635,3.7632,3.7632,3.7631,3.7627,3.7627,3.763,3.763,3.763,3.763,0,0,0,0,0,0,0,3.7636,3.7636,3.7634,3.7635,3.7635,3.7635,3.7635,3.7632,3.7633,3.7635,3.7635,3.7635,3.7632,3.7632,3.7631,3.7627,3.763,3.763,3.763,3.763,3.762,3.762,0,0,0,0,0,0,3.7636,3.7636,3.7634,3.7634,3.7636,3.7635,3.7635,3.7635,3.7633,3.7633,3.7635,3.7635,3.7632,3.7631,3.7631,3.7627,3.763,3.763,3.763,3.762,3.762,3.762,0,0,0,0,0,0,3.7637,3.7636,3.7634,3.7635,3.7635,3.7635,3.7634,3.7634,3.7634,3.7633,3.7633,3.7634,3.7632,3.7631,3.7628,3.7627,3.763,3.7629,3.762,3.762,3.762,3.7618,0,0,0,0,0,0,3.7637,3.7636,3.7635,3.7635,3.7635,3.7632,3.7634,3.7634,3.7634,3.7634,3.7632,3.7632,3.7632,3.7629,3.7628,3.7626,3.7629,3.762,3.762,3.762,3.7618,3.7618,3.7617,0,0,0,0,0,3.7637,3.7634,3.7635,3.7635,3.7633,3.7632,3.7631,3.7632,3.7633,3.7632,3.7632,3.7632,3.7627,3.7628,3.7628,3.7626,3.762,3.762,3.762,3.7618,3.7618,3.7617,0,0,0,0,0,0,3.7633,3.7634,3.7635,3.7632,3.7632,3.7632,3.763,3.7631,3.763,3.763,3.763,3.763,3.7627,3.7626,3.7628,3.7622,3.7624,3.7623,3.7623,3.7622,3.7622,3.7622,3.7629,0,0,0,0,0,3.7632,3.7631,3.7632,3.7629,3.7629,3.763,3.7629,3.763,3.7629,3.7629,3.7628,3.7627,3.7625,3.7624,3.7622,3.7618,3.7618,3.7617,3.7616,3.7616,3.7615,3.7614,3.7613,3.7619,3.7619,3.7619,0,0,3.7629,3.763,3.7629,3.7629,3.7628,3.7627,3.763,3.7628,3.7627,3.7628,3.7626,3.7625,3.7624,3.7621,3.7619,3.762,3.7614,3.7616,3.7615,3.7615,3.7614,3.7613,3.7613,3.7619,3.7619,3.7619,0,0,3.7624,3.7625,3.7623,3.7623,3.7623,3.7624,3.7624,3.7624,3.7624,3.7621,3.7622,3.7621,3.7618,3.7617,3.7616,3.7612,3.7612,3.7611,3.7609,3.7608,3.7607,3.7607,3.7605,3.7605,3.7611,3.7611,3.7611,0,3.7621,3.762,3.7622,3.7621,3.762,3.7623,3.7621,3.762,3.762,3.7619,3.762,3.7617,3.7616,3.7613,3.7612,3.7611,3.7611,3.7611,3.7607,3.7607,3.7606,3.7605,3.7605,3.7611,3.7611,3.7611,3.7611,0,3.7616,3.7615,3.7614,3.7614,3.7614,3.7612,3.7613,3.7613,3.7614,3.7614,3.7612,3.7611,3.761,3.7609,3.7609,3.7606,3.7606,3.7607,3.7609,3.7606,3.7605,3.7604,3.7611,3.7611,3.7611,3.7611,0,0,3.7608,3.761,3.761,3.761,3.7611,3.761,3.7608,3.7608,3.7607,3.7607,3.7606,3.7603,3.7605,3.7604,3.7604,3.7603,3.76,3.7604,3.7604,3.7603,3.7597,3.7596,3.7595,3.76,3.76,3.76,3.7597,0,3.7603,3.7601,3.7604,3.7601,3.7601,3.7603,3.7602,3.7602,3.7603,3.7602,3.7602,3.7601,3.7602,3.7602,3.7601,3.7601,3.7599,3.7601,3.7599,3.7599,3.7599,3.7595,3.7594,3.759,3.7596,3.7596,3.7596,0,3.7597,3.7598,3.7596,3.7597,3.7597,3.7596,3.7596,3.7595,3.7596,3.7596,3.7596,3.7597,3.7595,3.7597,3.7595,3.7596,3.7596,3.7596,3.7596,3.7595,3.7597,3.7594,3.7589,3.7589,3.7595,3.7595,3.7596,0,3.7592,3.7592,3.7591,3.7591,3.7593,3.7592,3.7593,3.7593,3.7593,3.7593,3.7593,3.7592,3.7592,3.7591,3.7592,3.7593,3.7589,3.7591,3.7589,3.7589,3.7588,3.7588,3.7583,3.7588,3.7588,3.7588,3.7588,0,3.7586,3.7585,3.7588,3.7588,3.7586,3.7589,3.7587,3.7588,3.7588,3.7588,3.759,3.7589,3.759,3.7589,3.759,3.7588,3.7588,3.7588,3.7588,3.7588,3.7588,3.7587,3.7587,3.7588,3.7588,3.7588,3.7588,0,3.7579,3.7582,3.7581,3.7583,3.7584,3.7583,3.7584,3.7584,3.7585,3.7584,3.7584,3.7585,3.7585,3.7586,3.7584,3.7585,3.7583,3.7583,3.7583,3.7583,3.7581,3.7581,3.7575,3.7575,3.758,3.758,3.758,0,3.7575,3.7575,3.7577,3.7578,3.7578,3.7578,3.7579,3.7581,3.7581,3.7582,3.7581,3.7581,3.7581,3.7579,3.758,3.7579,3.758,3.7578,3.7579,3.7579,3.758,3.758,3.758,3.7577,3.7577,3.7577,3.7577,0,3.7569,3.757,3.7571,3.7572,3.7572,3.7573,3.7574,3.7574,3.7576,3.7576,3.7576,3.7576,3.7576,3.7576,3.7575,3.7575,3.7577,3.7577,3.7576,3.7576,3.7576,3.7576,3.7582,3.7577,3.7577,3.7577,3.7577,3.7577,3.7563,3.7563,3.7565,3.7566,3.7567,3.7568,3.7568,3.757,3.757,3.757,3.7572,3.7571,3.7572,3.7572,3.7572,3.7572,3.7572,3.7572,3.7572,3.7571,3.7571,3.7576,3.7572,3.7572,3.7572,3.7572,3.7572,0,3.7557,3.7558,3.7559,3.7561,3.7562,3.7564,3.7565,3.7565,3.7565,3.7566,3.7567,3.7567,3.7567,3.7568,3.7568,3.7567,3.7568,3.7567,3.7567,3.7567,3.757,3.7571,3.7567,3.7567,3.7567,3.7567,3.7567,3.7567,3.7553,3.7553,3.7555,3.7555,3.7557,3.7558,3.7558,3.7559,3.756,3.756,3.7561,3.7562,3.7563,3.7563,3.7563,3.7563,3.7563,3.7562,3.7563,3.7566,3.7567,3.7567,3.7567,3.7562,3.7562,3.7559,3.7559,3.7559]}]]